Home   Weather   Yellowknife   Past weeks

Flag for Canada Past Weather in Yellowknife, Northwest Territories, Canada — Yesterday and Last 2 Weeks

Now
54 °F

Mostly cloudy.


Feels Like: 54 °F
Forecast: 42 / 59 °F
Wind: 2 mph from North

Location: Yellowknife

Current Time: Aug 30, 2016 at 10:20:46 PM

Latest Report: Aug 30, 2016 at 9:00 PM


Visibility: 15 mi

Pressure: 30.38 "Hg

Humidity: 63%

Dew Point: 41 °F

Location of YellowknifeLocation

Past Weather in Yellowknife — Graph

°F

Yellowknife Temperature Yesterday

Maximum temperature yesterday: 57 °F (at 2:00 PM)
Minimum temperature yesterday: 41 °F (at 5:00 AM)
Average temperature yesterday: 50 °F

High & Low Weather Summary for the Past Weeks

 TemperatureHumidityPressure
High77 °F (Aug 16, 2:00 PM)100% (Aug 18, 6:00 AM)30.41 "Hg (Aug 18, 6:00 AM)
Low41 °F (Aug 28, 6:00 AM)34% (Aug 16, 2:00 PM)29.67 "Hg (Aug 16, 4:00 PM)
Average59 °F71%30.00 "Hg
* Reported Aug 15 9:00 PM — Aug 30 9:00 PM, Yellowknife, Weather by CustomWeather, © 2016

Note: Actual official high and low records may vary slightly from our data, if they occured in-between our weather recording intervals... More about our weather records

Advertising

Yellowknife Weather History for the Previous 24 Hours

Scroll right to see more
 ConditionsComfort  
Time TempWeatherWind HumidityBarometerVisibility
9:00 PM
Tue, Aug 30
54 °FMostly cloudy.2 mph63%30.38 "Hg15 mi
8:00 PM55 °FMostly cloudy.2 mph55%30.38 "Hg15 mi
7:00 PM55 °FMostly cloudy.3 mph55%30.39 "Hg15 mi
6:00 PM57 °FMostly cloudy.6 mph48%30.38 "Hg15 mi
5:00 PM57 °FMostly cloudy.9 mph51%30.38 "Hg15 mi
4:00 PM57 °FPartly sunny.9 mph51%30.39 "Hg15 mi
3:00 PM55 °FBroken clouds.6 mph55%30.40 "Hg15 mi
2:00 PM55 °FPartly sunny.8 mph55%30.40 "Hg15 mi
1:00 PM55 °FPartly sunny.8 mph59%30.40 "Hg15 mi
12:00 PM54 °FPartly sunny.9 mph63%30.41 "Hg15 mi
11:00 AM54 °FPartly sunny.6 mph58%30.41 "Hg15 mi
10:00 AM52 °FBroken clouds.9 mph72%30.40 "Hg15 mi
9:00 AM50 °FPassing clouds.7 mph82%30.40 "Hg15 mi
8:00 AM46 °FPassing clouds.5 mph93%30.41 "Hg15 mi
7:00 AM45 °FPassing clouds.7 mph93%30.39 "Hg15 mi
6:00 AM43 °FPassing clouds.6 mph93%30.40 "Hg15 mi
5:00 AM43 °FPassing clouds.2 mph93%30.41 "Hg15 mi
4:00 AM45 °FClear.5 mph93%30.39 "Hg15 mi
3:00 AM45 °FPassing clouds.6 mph93%30.38 "Hg15 mi
2:00 AM46 °FPassing clouds.6 mph87%30.37 "Hg15 mi
1:00 AM45 °FPassing clouds.7 mph87%30.37 "Hg15 mi
12:00 AM45 °FPassing clouds.3 mph87%30.37 "Hg15 mi
11:00 PM
Mon, Aug 29
50 °FPassing clouds.6 mph76%30.35 "Hg15 mi
10:00 PM50 °FPartly cloudy.7 mph76%30.34 "Hg15 mi
Weather by CustomWeather, © 2016

See weather overviewHow to use our weather pages